DW5244 Weather Reports


Display with metric or nautical units.
time (UTC)temp
F
wind
direction
speed
MPH
gust
MPH
rain 1hr
in
rain 24hr
in
rain mn
in
humidity
%
barometer
mb
20260903074537 76 333 6.0 10.0 0.00 0.13 0.00 59 1015.4
20260903073136 76 306 5.0 8.0 0.00 0.13 0.00 57 1015.5
20260903071534 75 336 2.0 9.0 0.00 0.13 0.00 59 1015.5
20260903070034 75 334 4.0 12.0 0.00 0.13 0.00 61 1015.6
20260903064535 75 360 9.0 14.0 0.00 0.13 0.00 61 1015.6
20260903063031 75 325 8.0 13.0 0.00 0.13 0.00 63 1015.6
20260903061531 75 326 7.0 11.0 0.00 0.13 0.00 63 1015.6
20260903060028 75 293 5.0 10.0 0.00 0.13 0.00 64 1015.5
20260903054526 76 317 4.0 8.0 0.00 0.13 0.00 65 1015.5
20260903053023 76 360 9.0 13.0 0.00 0.13 0.00 63 1015.6
20260903051521 77 297 10.0 13.0 0.00 0.13 0.00 63 1015.6
20260903050019 77 301 8.0 11.0 0.00 0.13 0.00 64 1015.5
20260903044521 76 360 7.0 12.0 0.00 0.13 0.00 65 1015.5
20260903043018 77 312 7.0 11.0 0.00 0.13 0.00 65 1015.5
20260903041517 77 336 8.0 13.0 0.00 0.13 0.00 65 1015.5
20260903040016 77 360 7.0 11.0 0.00 0.13 0.00 64 1015.5
20260903034514 77 340 9.0 13.0 0.00 0.13 0.00 61 1015.4
20260903033015 77 360 5.0 9.0 0.00 0.13 0.00 65 1015.3
20260903031511 77 360 7.0 11.0 0.00 0.13 0.00 65 1015.2
20260903030011 77 360 10.0 14.0 0.00 0.13 0.00 66 1015.0
20260903024508 78 327 8.0 13.0 0.00 0.13 0.00 62 1014.7
20260903023008 79 321 9.0 14.0 0.00 0.13 0.00 55 1014.5
20260903021508 80 319 9.0 13.0 0.00 0.13 0.00 51 1014.4
20260903020007 80 317 11.0 15.0 0.00 0.13 0.00 52 1014.4
20260903014505 80 348 9.0 13.0 0.00 0.13 0.00 53 1014.3
20260903013005 81 330 8.0 11.0 0.00 0.13 0.00 50 1014.2
20260903011503 81 355 10.0 12.0 0.00 0.13 0.00 48 1014.0
20260903010002 81 360 9.0 12.0 0.00 0.13 0.00 48 1014.1
20260903004559 81 355 8.0 14.0 0.00 0.13 0.00 49 1014.2
20260903003056 80 346 8.0 13.0 0.00 0.13 0.00 54 1014.5
20260903001553 79 360 8.0 15.0 0.00 0.13 0.00 55 1014.8
20260903000051 78 9 7.0 14.0 0.00 0.13 0.00 63 1014.9
20260902234559 79 321 13.0 17.0 0.00 0.13 0.00 59 1014.8
20260902233045 80 355 13.0 24.0 0.00 0.13 0.00 54 1015.2
20260902230048 80 347 21.0 28.0 0.13 0.13 0.13 60 1014.2
20260902224544 77 355 20.0 27.0 0.11 0.11 0.11 70 1014.1
20260902223042 80 150 4.0 14.0 0.08 0.08 0.08 62 1014.1
20260902221541 84 179 15.0 35.0 0.04 0.04 0.04 51 1014.4
20260902220042 96 210 1.0 4.0 0.00 0.00 0.00 29 1013.7
20260902214540 99 348 1.0 6.0 0.00 0.00 0.00 25 1013.8
20260902213037 98 360 2.0 10.0 0.00 0.00 0.00 26 1013.9
20260902211535 100 267 6.0 12.0 0.00 0.00 0.00 24 1014.1
20260902210032 102 235 2.0 9.0 0.00 0.00 0.00 24 1014.4
20260902204528 99 360 6.0 9.0 0.00 0.00 0.00 27 1014.7
20260902203026 98 360 8.0 13.0 0.00 0.00 0.00 27 1015.0
20260902201524 98 334 5.0 8.0 0.00 0.00 0.00 26 1015.3
20260902200020 98 264 4.0 14.0 0.00 0.00 0.00 27 1015.6
20260902194523 97 340 6.0 11.0 0.00 0.00 0.00 28 1015.6
20260902193016 97 360 5.0 9.0 0.00 0.00 0.00 27 1015.9
20260902191516 97 302 6.0 10.0 0.00 0.00 0.00 28 1016.2
20260902190011 94 223 1.0 6.0 0.00 0.00 0.00 31 1016.5
20260902184510 95 305 6.0 10.0 0.00 0.00 0.00 29 1016.7
20260902183006 95 288 5.0 10.0 0.00 0.00 0.00 29 1017.0
20260902181503 93 331 3.0 9.0 0.00 0.00 0.00 31 1017.3
20260902180101 92 180 4.0 12.0 0.00 0.00 0.00 35 1017.5
20260902174557 95 360 2.0 9.0 0.00 0.00 0.00 31 1017.7
20260902173052 93 360 6.0 12.0 0.00 0.00 0.00 33 1017.9
20260902171603 91 173 2.0 8.0 0.00 0.00 0.00 38 1018.2
20260902170047 91 360 3.0 8.0 0.00 0.00 0.00 38 1018.4
20260902164542 88 261 1.0 8.0 0.00 0.00 0.00 39 1018.3
20260902163037 88 311 2.0 4.0 0.00 0.00 0.00 43 1018.4
20260902161532 87 292 2.0 6.0 0.00 0.00 0.00 40 1018.5
20260902160028 85 244 2.0 7.0 0.00 0.00 0.00 42 1018.5
20260902154527 83 147 0.0 4.0 0.00 0.00 0.00 48 1018.6
20260902153020 83 88 2.0 4.0 0.00 0.00 0.00 47 1018.7
20260902151516 81 26 5.0 9.0 0.00 0.00 0.00 55 1018.7
20260902150016 79 360 8.0 11.0 0.00 0.00 0.00 58 1018.7
20260902144512 78 360 7.0 10.0 0.00 0.00 0.00 59 1018.7
20260902143009 78 360 6.0 10.0 0.00 0.00 0.00 60 1018.7
20260902141507 77 360 6.0 11.0 0.00 0.00 0.00 63 1018.6
20260902140006 76 324 7.0 11.0 0.00 0.00 0.00 65 1018.5
20260902134502 75 360 6.0 9.0 0.00 0.00 0.00 67 1018.3
20260902133106 73 360 5.0 8.0 0.00 0.00 0.00 70 1018.2
20260902131554 72 343 4.0 8.0 0.00 0.00 0.00 72 1018.1
20260902130053 72 360 3.0 9.0 0.00 0.00 0.00 71 1017.9
20260902124549 72 335 6.0 11.0 0.00 0.00 0.00 71 1017.8
20260902123050 72 329 4.0 5.0 0.00 0.00 0.00 70 1017.7
20260902121545 73 360 4.0 9.0 0.00 0.00 0.00 70 1017.7
20260902120047 72 317 4.0 5.0 0.00 0.00 0.00 70 1017.7
20260902114552 73 341 4.0 10.0 0.00 0.00 0.00 70 1017.6
20260902113042 72 329 7.0 11.0 0.00 0.00 0.00 70 1017.5
20260902111546 72 313 5.0 9.0 0.00 0.00 0.00 71 1017.5
20260902110056 72 321 2.0 8.0 0.00 0.00 0.00 70 1017.5
20260902104539 73 339 3.0 8.0 0.00 0.00 0.00 69 1017.5
20260902103040 72 360 4.0 10.0 0.00 0.00 0.00 68 1017.3
20260902101540 72 315 3.0 8.0 0.00 0.00 0.00 68 1017.4
20260902100037 72 360 5.0 10.0 0.00 0.00 0.00 69 1017.4
20260902094542 73 360 6.0 10.0 0.00 0.00 0.00 69 1017.4
20260902093032 73 360 6.0 9.0 0.00 0.00 0.00 67 1017.3
20260902091530 74 360 5.0 9.0 0.00 0.00 0.00 66 1017.4
20260902090029 74 338 6.0 11.0 0.00 0.00 0.00 64 1017.3
20260902084538 74 360 8.0 12.0 0.00 0.00 0.00 66 1017.2
20260902083027 74 360 11.0 14.0 0.00 0.00 0.00 66 1017.3
20260902081526 74 360 9.0 15.0 0.00 0.00 0.00 65 1017.3
20260902080024 75 360 8.0 11.0 0.00 0.00 0.00 65 1017.2